Regional Weather Roundup
Issued by NWS Albany, NY

Home | Current Version | Previous Version | Text Only | Print | Product List | Glossary On
Versions: 1 2 3 4 5 6 7 8 9 10 11 12 13 14 15 16 17 18 19 20 21 22 23 24 25 26 27 28 29 30 31 32 33 34 35 36 37 38 39 40 41 42 43 44 45 46 47 48 49 50
000
ASUS41 KALY 030110
RWRALY

NEW YORK STATE HOURLY WEATHER ROUNDUP
NATIONAL WEATHER SERVICE ALBANY NY
900 PM EDT WED SEP 02 2015

NOTE: "FAIR" INDICATES FEW OR NO CLOUDS BELOW 12,000 FEET WITH NO
SIGNIFICANT WEATHER AND/OR NO OBSTRUCTIONS TO VISIBILITY.

NYZ032-033-038>043-046>054-057>066-NYZ062>081-030200-
EAST


CITY           SKY/WX    TMP DP  RH WIND       PRES   REMARKS
ALBANY         PTCLDY    76  65  68 CALM      29.90R
GLENS FALLS    CLEAR     73  68  84 CALM      29.88S
POUGHKEEPSIE   PTCLDY    75  67  76 E3        29.88R
NEWBURGH       PTCLDY    77  68  73 NW6       29.91S
MONTGOMERY     CLEAR     78  65  63 CALM      29.90R
WHITE PLAINS   CLEAR     73  62  68 CALM      29.91S
ISLIP          PTCLDY    76  65  68 SW8       29.90S
NEW YORK CITY  PTCLDY    80  68  66 SE8       29.89S
CENTRAL PARK   CLEAR     80  66  62 CALM      29.93R
$$

NYZ005>009-017-018-044>046-055-056-030200-
CENTRAL


CITY           SKY/WX    TMP DP  RH WIND       PRES   REMARKS
FULTON         CLEAR     68  66  93 CALM      29.93S FOG
SYRACUSE       PTCLDY    72  70  93 CALM      29.92S
ROME           CLEAR     70  67  90 CALM      29.93F
ELMIRA         PTCLDY    71  69  93 CALM      29.95S
BINGHAMTON     CLEAR     75  65  70 N3        29.99S
MONTICELLO     CLEAR     72  64  78 NW3       29.98S
$$

NYZ026>034-041>043-030200-
NORTH


CITY           SKY/WX    TMP DP  RH WIND       PRES   REMARKS
WATERTOWN      CLEAR     68  65  90 CALM      29.92R FOG
FORT DRUM      NOT AVBL
MASSENA        CLOUDY    70  67  90 SW5       29.89S FOG
SARANAC LAKE   PTCLDY    65  62  90 SW3       29.94F FOG
PLATTSBURGH    PTCLDY    70  68  93 W5        29.88S
$$

NYZ001>004-010>016-019>021-030200-
WEST


CITY           SKY/WX    TMP DP  RH WIND       PRES   REMARKS
NIAGARA FALLS  PTCLDY    74  70  87 SW9       29.94R
BUFFALO        PTCLDY    76  69  79 SW9       29.96R
DUNKIRK        PTCLDY    72  68  87 SW5       29.98R
JAMESTOWN      MOCLDY    72  64  78 NW5       30.03R
WELLSVILLE     PTCLDY    73  64  73 NW5       30.05S
ROCHESTER      CLEAR     74  71  91 SW3       29.95R
PENN YAN       CLEAR     71  67  87 CALM      29.97R
$$

             KEY
       WCI = WIND CHILL INDEX
       VSB = VISIBILITY
       HX  = HEAT INDEX
$$


USA.gov is the U.S. government's official web portal to all federal, state and local government web resources and services.